BKB6 CYKA-KRNO

Flight info

Callsign BKB6
Flight time N/A
Altitude 35000
Route YDC DCT EAT
Aircraft RJ1H/M-SDFGIRWY/LB1

Departure

Time 2026-05-01 11:35
Airport Kamloops John Moose Fulton Field Regional Airport (CYKA)

Arrival

Time N/A
Airport Reno Tahoe International Airport (KRNO)
Time Latitude Longitude Altitude Speed Heading
2026-05-01 11:17 50.70415 -120.44299 1136 ft 0 kts 62°
2026-05-01 11:32 50.70414 -120.44268 1137 ft 7 kts 109°
2026-05-01 11:32 50.70381 -120.44154 1135 ft 16 kts 108°
2026-05-01 11:32 50.70349 -120.43944 1138 ft 23 kts 104°
2026-05-01 11:32 50.70308 -120.43672 1138 ft 28 kts 103°
2026-05-01 11:33 50.70261 -120.43367 1137 ft 26 kts 105°
2026-05-01 11:33 50.70155 -120.43202 1135 ft 17 kts 151°
2026-05-01 11:33 50.70063 -120.43223 1137 ft 10 kts 258°
2026-05-01 11:33 50.70066 -120.43267 1136 ft 0 kts 281°
2026-05-01 11:34 50.70110 -120.43561 1138 ft 67 kts 283°
2026-05-01 11:34 50.70274 -120.44658 1154 ft 133 kts 282°
2026-05-01 11:35 50.70465 -120.46183 1695 ft 140 kts 282°
2026-05-01 11:35 50.70635 -120.47658 2324 ft 149 kts 278°
2026-05-01 11:35 50.70841 -120.49375 2895 ft 159 kts 282°
2026-05-01 11:35 50.70982 -120.51192 3609 ft 179 kts 252°
2026-05-01 11:36 50.70151 -120.52680 4348 ft 195 kts 202°
2026-05-01 11:36 50.68777 -120.52816 5197 ft 207 kts 170°
2026-05-01 11:36 50.67320 -120.52410 6039 ft 219 kts 170°
2026-05-01 11:36 50.65794 -120.51890 6875 ft 230 kts 165°
2026-05-01 11:37 50.64239 -120.51163 7774 ft 238 kts 165°
2026-05-01 11:37 50.62596 -120.50457 8526 ft 251 kts 169°
2026-05-01 11:37 50.60849 -120.49859 9293 ft 262 kts 172°
2026-05-01 11:37 50.59032 -120.49392 10211 ft 266 kts 174°
2026-05-01 11:38 50.57181 -120.49035 11094 ft 270 kts 176°
2026-05-01 11:38 50.55299 -120.48756 11975 ft 274 kts 178°
2026-05-01 11:38 50.53372 -120.48523 12713 ft 283 kts 179°
2026-05-01 11:38 50.51373 -120.48333 13377 ft 291 kts 179°
2026-05-01 11:39 50.49330 -120.48140 14105 ft 296 kts 179°
2026-05-01 11:39 50.47273 -120.47946 14813 ft 297 kts 180°
2026-05-01 11:39 50.45198 -120.47750 15491 ft 299 kts 180°
2026-05-01 11:39 50.43111 -120.47543 16149 ft 301 kts 180°
2026-05-01 11:40 50.41011 -120.47326 16780 ft 303 kts 180°
2026-05-01 11:40 50.38901 -120.47124 17375 ft 305 kts 180°
2026-05-01 11:40 50.36767 -120.46921 17879 ft 309 kts 180°
2026-05-01 11:40 50.34609 -120.46718 18418 ft 311 kts 180°
2026-05-01 11:41 50.32444 -120.46507 18879 ft 313 kts 180°
2026-05-01 11:41 50.30263 -120.46291 19263 ft 316 kts 180°
2026-05-01 11:41 50.28094 -120.46072 19666 ft 317 kts 180°
2026-05-01 11:41 50.25884 -120.45865 20039 ft 320 kts 180°
2026-05-01 11:42 50.23651 -120.45648 20417 ft 322 kts 180°
2026-05-01 11:42 50.21404 -120.45428 20784 ft 324 kts 180°
2026-05-01 11:42 50.19141 -120.45207 21136 ft 327 kts 180°
2026-05-01 11:42 50.16862 -120.44986 21496 ft 329 kts 180°
2026-05-01 11:43 50.14572 -120.44765 21848 ft 331 kts 180°
2026-05-01 11:43 50.12258 -120.44544 22120 ft 336 kts 180°
2026-05-01 11:43 50.09918 -120.44303 22434 ft 339 kts 179°
2026-05-01 11:44 50.05187 -120.43792 23123 ft 343 kts 180°
2026-05-01 11:44 50.02803 -120.43568 23442 ft 344 kts 180°
2026-05-01 11:44 50.00401 -120.43341 23751 ft 347 kts 180°
2026-05-01 11:44 49.97985 -120.43091 24026 ft 348 kts 180°
2026-05-01 11:45 49.95567 -120.42867 24302 ft 349 kts 180°
2026-05-01 11:45 49.93132 -120.42643 24562 ft 351 kts 180°
2026-05-01 11:45 49.90688 -120.42388 24801 ft 353 kts 180°
2026-05-01 11:45 49.88244 -120.42152 25113 ft 352 kts 180°
2026-05-01 11:46 49.85800 -120.41923 25399 ft 353 kts 180°
2026-05-01 11:46 49.83353 -120.41668 25723 ft 352 kts 179°
2026-05-01 11:46 49.80914 -120.41420 26030 ft 351 kts 180°
2026-05-01 11:46 49.78475 -120.41195 26337 ft 351 kts 180°
2026-05-01 11:47 49.76073 -120.40979 26636 ft 350 kts 180°
2026-05-01 11:47 49.73636 -120.40761 26941 ft 350 kts 180°
2026-05-01 11:47 49.71210 -120.40520 27223 ft 350 kts 180°
2026-05-01 11:47 49.68783 -120.40280 27516 ft 349 kts 180°
2026-05-01 11:48 49.66361 -120.40051 27803 ft 348 kts 180°
2026-05-01 11:48 49.63946 -120.39823 28080 ft 348 kts 180°
2026-05-01 11:48 49.61527 -120.39595 28297 ft 349 kts 180°
2026-05-01 11:48 49.59104 -120.39351 28514 ft 350 kts 179°
2026-05-01 11:49 49.56678 -120.39103 28790 ft 349 kts 180°
2026-05-01 11:49 49.54253 -120.38875 29068 ft 348 kts 180°
2026-05-01 11:49 49.51841 -120.38652 29337 ft 348 kts 180°
2026-05-01 11:49 49.49427 -120.38430 29616 ft 348 kts 180°
2026-05-01 11:50 49.47013 -120.38209 29885 ft 347 kts 180°
2026-05-01 11:50 49.44602 -120.37984 30120 ft 347 kts 180°
2026-05-01 11:50 49.42192 -120.37757 30335 ft 347 kts 180°
2026-05-01 11:50 49.39787 -120.37529 30508 ft 346 kts 180°
2026-05-01 11:51 49.37388 -120.37300 30729 ft 345 kts 180°
2026-05-01 11:51 49.34992 -120.37068 30899 ft 345 kts 180°
2026-05-01 11:51 49.32592 -120.36836 31090 ft 345 kts 180°
2026-05-01 11:51 49.30195 -120.36631 31235 ft 346 kts 181°
2026-05-01 11:52 49.25304 -120.36236 31263 ft 357 kts 180°
2026-05-01 11:52 49.20278 -120.35776 31309 ft 367 kts 180°
2026-05-01 11:53 49.17726 -120.35568 31418 ft 368 kts 181°
2026-05-01 11:53 49.15203 -120.35358 31559 ft 368 kts 180°
2026-05-01 11:53 49.12647 -120.35133 31703 ft 369 kts 180°
2026-05-01 11:53 49.10078 -120.34919 31809 ft 370 kts 180°
2026-05-01 11:54 49.07509 -120.34693 31954 ft 370 kts 180°
2026-05-01 11:54 49.04940 -120.34465 32106 ft 370 kts 180°
2026-05-01 11:54 49.02372 -120.34266 32247 ft 370 kts 180°
2026-05-01 11:54 48.99802 -120.34052 32387 ft 370 kts 180°
2026-05-01 11:55 48.97232 -120.33829 32524 ft 370 kts 180°
2026-05-01 11:55 48.94665 -120.33625 32675 ft 369 kts 181°
2026-05-01 11:55 48.92965 -120.33495 32782 ft 369 kts 181°
2026-05-01 11:55 48.90400 -120.33280 32922 ft 369 kts 180°
2026-05-01 11:56 48.87837 -120.33056 33059 ft 369 kts 180°
2026-05-01 11:56 48.85232 -120.32834 33204 ft 370 kts 180°
2026-05-01 11:56 48.82659 -120.32609 33351 ft 370 kts 180°
2026-05-01 11:56 48.80091 -120.32409 33510 ft 370 kts 181°
2026-05-01 11:57 48.77518 -120.32211 33637 ft 370 kts 180°
2026-05-01 11:57 48.74950 -120.31985 33749 ft 370 kts 180°
2026-05-01 11:57 48.72410 -120.31766 33887 ft 370 kts 181°
2026-05-01 11:57 48.69808 -120.31559 34012 ft 370 kts 181°
2026-05-01 11:58 48.67240 -120.31360 34135 ft 370 kts 181°
2026-05-01 11:58 48.64672 -120.31159 34255 ft 370 kts 180°
2026-05-01 11:58 48.59567 -120.30699 34434 ft 370 kts 180°
2026-05-01 11:59 48.56999 -120.30496 34534 ft 370 kts 181°
2026-05-01 11:59 48.54427 -120.30296 34636 ft 370 kts 181°
2026-05-01 11:59 48.51861 -120.30097 34741 ft 370 kts 180°
2026-05-01 12:00 48.46726 -120.29646 34943 ft 368 kts 180°
2026-05-01 12:00 48.44188 -120.29436 34973 ft 363 kts 180°
2026-05-01 12:01 48.36644 -120.28830 34981 ft 362 kts 181°
2026-05-01 12:01 48.31598 -120.28407 34993 ft 364 kts 180°
2026-05-01 12:02 48.26526 -120.27998 34993 ft 367 kts 181°
2026-05-01 12:02 48.21383 -120.27564 34984 ft 373 kts 180°
2026-05-01 12:03 48.16166 -120.27144 34978 ft 378 kts 180°
2026-05-01 12:03 48.10893 -120.26703 34986 ft 383 kts 180°
2026-05-01 12:04 48.05530 -120.26276 34976 ft 389 kts 180°
2026-05-01 12:04 48.00096 -120.25824 34973 ft 392 kts 180°
2026-05-01 12:05 47.94616 -120.25396 34984 ft 397 kts 180°
2026-05-01 12:05 47.86301 -120.24698 34976 ft 401 kts 180°
2026-05-01 12:06 47.80756 -120.24244 34982 ft 403 kts 180°
2026-05-01 12:06 47.75147 -120.23819 34973 ft 404 kts 180°
2026-05-01 12:07 47.69538 -120.23358 34945 ft 403 kts 180°
2026-05-01 12:07 47.63941 -120.22898 34967 ft 402 kts 181°
2026-05-01 12:08 47.58340 -120.22472 34999 ft 404 kts 180°
2026-05-01 12:08 47.52675 -120.21998 35011 ft 406 kts 180°
2026-05-01 12:09 47.47068 -120.21569 35004 ft 407 kts 180°
2026-05-01 12:09 47.41412 -120.21097 35001 ft 407 kts 180°
2026-05-01 12:10 47.32943 -120.20727 35002 ft 406 kts 182°
2026-05-01 12:11 47.24468 -120.20513 34988 ft 406 kts 181°
2026-05-01 12:11 47.18821 -120.20332 34973 ft 406 kts 181°
2026-05-01 12:12 47.13165 -120.20159 34966 ft 407 kts 181°
2026-05-01 12:12 47.07503 -120.19958 34982 ft 408 kts 181°
2026-05-01 12:13 47.01864 -120.19751 34982 ft 408 kts 181°
2026-05-01 12:13 46.96179 -120.19592 34987 ft 409 kts 182°
2026-05-01 12:14 46.90493 -120.19399 34973 ft 409 kts 181°
2026-05-01 12:14 46.84809 -120.19229 34959 ft 408 kts 182°
2026-05-01 12:15 46.79132 -120.19043 34954 ft 408 kts 181°
2026-05-01 12:15 46.73456 -120.18874 34957 ft 408 kts 182°
2026-05-01 12:16 46.67770 -120.18688 34961 ft 409 kts 181°
2026-05-01 12:16 46.62074 -120.18525 34968 ft 410 kts 182°
2026-05-01 12:17 46.56370 -120.18327 34968 ft 410 kts 181°
2026-05-01 12:17 46.50658 -120.18171 34961 ft 410 kts 181°
2026-05-01 12:18 46.44950 -120.17973 34967 ft 411 kts 181°
2026-05-01 12:18 46.39238 -120.17801 34955 ft 411 kts 182°
2026-05-01 12:19 46.33522 -120.17616 34951 ft 411 kts 181°
2026-05-01 12:19 46.27806 -120.17456 34968 ft 411 kts 182°
2026-05-01 12:20 46.22084 -120.17279 34972 ft 411 kts 181°
2026-05-01 12:20 46.16355 -120.17086 34976 ft 412 kts 182°
2026-05-01 12:21 46.10621 -120.16923 34983 ft 412 kts 181°
2026-05-01 12:21 46.04886 -120.16743 34970 ft 412 kts 182°
2026-05-01 12:22 45.99175 -120.16564 34966 ft 413 kts 181°
2026-05-01 12:22 45.93423 -120.16390 34967 ft 413 kts 182°
2026-05-01 12:23 45.87683 -120.16216 34964 ft 413 kts 182°
2026-05-01 12:23 45.81940 -120.16058 34961 ft 413 kts 181°
2026-05-01 12:24 45.76186 -120.15861 34962 ft 414 kts 182°
2026-05-01 12:24 45.70426 -120.15710 34966 ft 415 kts 181°
2026-05-01 12:25 45.61763 -120.15445 34982 ft 415 kts 182°
2026-05-01 12:26 45.55981 -120.15253 34975 ft 416 kts 181°
2026-05-01 12:26 45.47298 -120.15020 34969 ft 416 kts 182°
2026-05-01 12:27 45.38621 -120.14742 34973 ft 415 kts 182°
2026-05-01 12:28 45.29986 -120.14482 34982 ft 417 kts 181°
2026-05-01 12:29 45.21273 -120.14243 34984 ft 418 kts 182°
2026-05-01 12:29 45.12554 -120.13959 34980 ft 418 kts 182°
2026-05-01 12:30 45.03817 -120.13725 34990 ft 419 kts 182°
2026-05-01 12:31 44.97988 -120.13565 35000 ft 419 kts 181°
2026-05-01 12:31 44.92154 -120.13370 35004 ft 419 kts 182°
2026-05-01 12:32 44.86321 -120.13200 34995 ft 420 kts 182°
2026-05-01 12:32 44.77534 -120.12951 34997 ft 421 kts 182°
2026-05-01 12:33 44.71715 -120.12785 34985 ft 421 kts 182°
2026-05-01 12:33 44.65871 -120.12611 34990 ft 419 kts 182°
2026-05-01 12:34 44.60047 -120.12435 34993 ft 419 kts 182°
2026-05-01 12:34 44.54220 -120.12256 34997 ft 419 kts 182°
2026-05-01 12:35 44.48384 -120.12073 34999 ft 420 kts 182°
2026-05-01 12:35 44.42528 -120.11887 35003 ft 422 kts 182°
2026-05-01 12:36 44.36651 -120.11699 35011 ft 422 kts 182°
2026-05-01 12:36 44.30786 -120.11511 35015 ft 420 kts 182°
2026-05-01 12:37 44.24943 -120.11373 35009 ft 420 kts 182°
2026-05-01 12:37 44.19079 -120.11180 35023 ft 422 kts 182°
2026-05-01 12:38 44.13207 -120.11033 35033 ft 423 kts 182°
2026-05-01 12:38 44.07319 -120.10849 35037 ft 423 kts 182°
2026-05-01 12:39 44.01417 -120.10693 35038 ft 425 kts 182°
2026-05-01 12:39 43.95497 -120.10521 35034 ft 426 kts 182°
2026-05-01 12:40 43.89606 -120.10363 35045 ft 422 kts 182°
2026-05-01 12:40 43.83775 -120.10203 35041 ft 423 kts 182°
2026-05-01 12:41 43.77877 -120.10018 35039 ft 425 kts 182°
2026-05-01 12:41 43.71965 -120.09871 35043 ft 426 kts 182°
2026-05-01 12:42 43.66035 -120.09682 35045 ft 426 kts 182°
2026-05-01 12:42 43.60093 -120.09537 35048 ft 428 kts 182°
2026-05-01 12:43 43.54126 -120.09344 35058 ft 429 kts 182°
2026-05-01 12:43 43.48158 -120.09201 35055 ft 429 kts 182°
2026-05-01 12:44 43.43195 -120.09040 35054 ft 430 kts 182°
2026-05-01 12:45 43.31193 -120.08704 35057 ft 432 kts 182°
2026-05-01 12:45 43.25179 -120.08562 35059 ft 432 kts 182°
2026-05-01 12:46 43.19158 -120.08378 35053 ft 432 kts 182°
2026-05-01 12:46 43.13148 -120.08222 35056 ft 431 kts 182°
2026-05-01 12:47 43.07148 -120.08075 35070 ft 431 kts 182°
2026-05-01 12:47 43.01140 -120.07876 35063 ft 433 kts 182°
2026-05-01 12:48 42.95105 -120.07710 35069 ft 435 kts 182°
2026-05-01 12:48 42.89048 -120.07552 35069 ft 436 kts 182°
2026-05-01 12:49 42.82988 -120.07391 35066 ft 434 kts 182°
2026-05-01 12:49 42.76954 -120.07217 35048 ft 434 kts 182°
2026-05-01 12:50 42.70904 -120.07043 35053 ft 435 kts 182°
2026-05-01 12:50 42.64856 -120.06866 35057 ft 435 kts 182°
2026-05-01 12:51 42.58809 -120.06687 35058 ft 435 kts 182°
2026-05-01 12:52 42.49738 -120.06417 35030 ft 435 kts 183°
2026-05-01 12:52 42.40789 -120.06210 35038 ft 430 kts 183°
2026-05-01 12:53 42.31783 -120.05943 35044 ft 433 kts 183°
2026-05-01 12:54 42.25754 -120.05797 35034 ft 433 kts 182°
2026-05-01 12:54 42.19725 -120.05610 34356 ft 436 kts 182°
2026-05-01 12:54 42.16692 -120.05547 33605 ft 437 kts 182°
2026-05-01 12:55 42.10613 -120.05399 32144 ft 435 kts 182°
2026-05-01 12:55 42.07584 -120.05325 31354 ft 436 kts 181°
2026-05-01 12:55 42.04541 -120.05234 30543 ft 439 kts 181°
2026-05-01 12:56 42.01472 -120.05144 29565 ft 443 kts 181°
2026-05-01 12:56 41.98382 -120.05066 29189 ft 446 kts 181°
2026-05-01 12:56 41.95270 -120.04992 29065 ft 447 kts 181°
2026-05-01 12:57 41.89062 -120.04851 29023 ft 446 kts 181°
2026-05-01 12:57 41.79738 -120.04588 28996 ft 448 kts 181°
2026-05-01 12:58 41.73528 -120.04415 29009 ft 445 kts 181°
2026-05-01 12:59 41.64235 -120.04152 29009 ft 446 kts 181°
2026-05-01 12:59 41.54887 -120.03891 28993 ft 448 kts 181°
2026-05-01 13:00 41.45547 -120.03625 28994 ft 448 kts 181°
2026-05-01 13:01 41.36243 -120.03423 28984 ft 447 kts 181°
2026-05-01 13:02 41.26912 -120.03159 28989 ft 447 kts 182°
2026-05-01 13:07 40.60950 -119.97700 24450 ft 459 kts 173°
2026-05-01 13:07 40.57744 -119.97098 24129 ft 459 kts 173°
2026-05-01 13:07 40.54588 -119.96509 23815 ft 459 kts 173°
2026-05-01 13:08 40.51469 -119.95897 23489 ft 460 kts 172°
2026-05-01 13:08 40.48303 -119.95266 23096 ft 447 kts 172°
2026-05-01 13:08 40.45312 -119.94695 22595 ft 434 kts 173°
2026-05-01 13:08 40.42358 -119.94147 22088 ft 423 kts 172°
2026-05-01 13:09 40.39543 -119.93267 21597 ft 412 kts 160°
2026-05-01 13:09 40.36893 -119.91931 21109 ft 405 kts 158°
2026-05-01 13:09 40.34282 -119.90583 20622 ft 402 kts 158°
2026-05-01 13:09 40.31688 -119.89239 20149 ft 399 kts 157°
2026-05-01 13:10 40.29127 -119.87873 19692 ft 395 kts 157°
2026-05-01 13:10 40.26600 -119.86527 19242 ft 391 kts 157°
2026-05-01 13:10 40.24093 -119.85194 18791 ft 386 kts 157°
2026-05-01 13:10 40.21616 -119.83884 18348 ft 382 kts 157°
2026-05-01 13:11 40.19161 -119.82590 17857 ft 378 kts 156°
2026-05-01 13:11 40.16734 -119.81334 17364 ft 374 kts 157°
2026-05-01 13:11 40.14329 -119.80090 16863 ft 370 kts 157°
2026-05-01 13:11 40.11946 -119.78857 16398 ft 367 kts 157°
2026-05-01 13:12 40.09582 -119.77638 15941 ft 364 kts 157°
2026-05-01 13:12 40.07240 -119.76424 15477 ft 360 kts 157°
2026-05-01 13:12 40.04905 -119.75285 15026 ft 358 kts 160°
2026-05-01 13:12 40.02552 -119.74260 14579 ft 355 kts 160°
2026-05-01 13:13 40.00215 -119.73262 14141 ft 352 kts 160°
2026-05-01 13:13 39.97887 -119.72285 13684 ft 349 kts 161°
2026-05-01 13:13 39.95591 -119.71326 13191 ft 345 kts 161°
2026-05-01 13:13 39.93310 -119.70377 12696 ft 342 kts 161°
2026-05-01 13:14 39.91056 -119.69439 12218 ft 339 kts 161°
2026-05-01 13:14 39.88820 -119.68506 11734 ft 336 kts 161°
2026-05-01 13:14 39.86605 -119.67581 11265 ft 333 kts 161°
2026-05-01 13:14 39.84414 -119.66665 10807 ft 329 kts 161°
2026-05-01 13:15 39.82244 -119.65757 10356 ft 326 kts 161°
2026-05-01 13:15 39.80195 -119.65059 9893 ft 282 kts 166°
2026-05-01 13:15 39.78343 -119.64572 9388 ft 267 kts 167°
2026-05-01 13:15 39.76491 -119.64298 8888 ft 271 kts 185°
2026-05-01 13:16 39.74766 -119.65204 8432 ft 274 kts 218°
2026-05-01 13:16 39.73673 -119.67177 8143 ft 271 kts 251°
2026-05-01 13:16 39.73526 -119.69580 8043 ft 261 kts 283°
2026-05-01 13:17 39.76878 -119.74801 8019 ft 248 kts 349°
2026-05-01 13:17 39.78449 -119.74666 8050 ft 222 kts 19°
2026-05-01 13:18 39.80569 -119.72263 6901 ft 196 kts 39°
2026-05-01 13:18 39.81731 -119.71498 6040 ft 182 kts 18°
2026-05-01 13:18 39.82859 -119.70925 5335 ft 164 kts 19°
2026-05-01 13:18 39.83891 -119.70520 4848 ft 149 kts 15°
2026-05-01 13:19 39.84861 -119.70294 4499 ft 133 kts
2026-05-01 13:19 39.85724 -119.70213 4347 ft 115 kts
2026-05-01 13:19 39.86783 -119.70187 4340 ft 28 kts
2026-05-01 13:20 39.86896 -119.70208 4341 ft 9 kts 270°
2026-05-01 13:20 39.86883 -119.70221 4342 ft 0 kts 132°